1512561601.04,3206,3.0,73354.0,-6.69,-7.65,-7.65,0,*6E
1512561602.29,3207,3.0,73360.0,-6.69,-7.57,-7.57,0,*6F
1512561603.54,3208,3.0,73354.5,-6.69,-7.65,-7.65,0,*60
1512561604.79,3209,3.0,73360.8,-6.73,-7.57,-7.57,0,*6A
1512561606.04,3210,3.0,73348.3,-6.69,-7.57,-7.65,0,*68
1512561607.29,3211,3.0,73346.8,-6.73,-7.57,-7.57,0,*63
1512561608.54,3212,3.0,73342.3,-6.73,-7.57,-7.65,0,*61
1512561609.79,3213,3.0,73352.3,-6.73,-7.65,-7.65,0,*61
1512561611.04,3214,3.0,73346.8,-6.69,-7.65,-7.65,0,*6D
1512561612.29,3215,3.0,73344.0,-6.73,-7.65,-7.69,0,*6B
1512561613.53,3216,3.0,73348.0,-6.73,-7.65,-7.69,0,*68
1512561614.78,3217,3.0,73344.3,-6.73,-7.65,-7.69,0,*69
1512561616.02,3218,3.0,73350.8,-6.69,-7.69,-7.65,0,*6D
1512561617.26,3219,3.0,73364.0,-6.73,-7.69,-7.69,0,*6B
1512561618.5,3220,3.0,73352.0,-6.73,-7.69,-7.69,0,*61
1512561619.75,3221,3.0,73350.0,-6.73,-7.77,-7.77,0,*60
1512561620.99,3222,3.0,73342.3,-6.73,-7.69,-7.69,0,*63
1512561622.24,3223,3.0,73312.3,-6.73,-7.69,-7.69,0,*62
1512561623.48,3224,3.0,73332.3,-6.73,-7.77,-7.77,0,*65
1512561624.73,3225,3.0,73310.8,-6.73,-7.69,-7.69,0,*64
1512561625.97,3226,3.0,73316.5,-6.73,-7.69,-7.77,0,*68
1512561627.22,3227,3.0,73272.5,-6.73,-7.77,-7.65,0,*65
1512561628.46,3228,3.0,73302.0,-6.73,-7.69,-7.69,0,*69
1512561629.7,3229,3.0,73326.5,-6.73,-7.69,-7.69,0,*68
1512561630.95,3230,3.0,73320.0,-6.73,-7.69,-7.69,0,*60
1512561632.22,3231,3.0,73278.3,-6.75,-7.73,-7.73,0,*67
1512561633.5,3232,3.0,73282.0,-6.75,-7.73,-7.73,0,*64
1512561634.76,3233,3.0,73302.0,-6.75,-7.73,-7.83,0,*6A
1512561636.0,3234,3.0,73300.5,-6.75,-7.83,-7.73,0,*6D
1512561637.23,3235,3.0,73318.0,-6.75,-7.83,-7.83,0,*63
1512561638.51,3236,3.0,73326.3,-6.75,-7.73,-7.73,0,*60
1512561639.78,3237,3.0,73320.5,-6.75,-7.73,-7.73,0,*61
1512561641.06,3238,3.0,73332.0,-6.75,-7.73,-7.69,0,*65
1512561642.33,3239,3.0,73354.8,-6.75,-7.73,-7.69,0,*64
1512561643.6,3240,3.0,73346.0,-6.75,-7.69,-7.73,0,*6A
1512561644.88,3241,3.0,73342.8,-6.75,-7.73,-7.73,0,*60
1512561646.08,3242,3.0,73346.0,-6.77,-7.83,-7.83,0,*61
1512561647.3,3243,3.0,73346.8,-6.75,-7.83,-7.83,0,*62
1512561648.53,3244,3.0,73336.0,-6.75,-7.83,-7.83,0,*65
1512561649.75,3245,3.0,73362.0,-6.75,-7.83,-7.83,0,*64
1512561650.97,3246,3.0,73366.0,-6.75,-7.83,-7.83,0,*67
1512561652.22,3247,3.0,73372.5,-6.75,-7.83,-7.73,0,*69
1512561653.42,3248,3.0,73386.0,-6.77,-7.83,-7.83,0,*6B
1512561654.62,3249,3.0,73374.0,-6.77,-7.83,-7.83,0,*6A
1512561655.86,3250,3.0,73380.0,-6.75,-7.83,-7.73,0,*6F
1512561657.09,3251,3.0,73376.0,-6.75,-7.87,-7.83,0,*65
1512561658.28,3252,3.0,73416.5,-6.77,-7.83,-7.83,0,*60
1512561659.51,3253,3.0,73418.8,-6.75,-7.83,-7.83,0,*63
1512561660.7,3254,3.0,73392.0,-6.77,-7.83,-7.83,0,*66
1512561661.9,3255,3.0,73378.3,-6.77,-7.83,-7.83,0,*67
1512561663.1,3256,3.0,73362.8,-6.77,-7.83,-7.83,0,*64
1512561664.29,3257,3.0,73306.0,-6.77,-7.87,-7.83,0,*61
1512561665.49,3258,3.0,73342.0,-6.77,-7.87,-7.87,0,*6A
1512561666.76,3259,3.0,73358.0,-6.79,-7.91,-7.99,0,*6D
1512561668.02,3260,3.0,73376.5,-6.79,-7.99,-7.91,0,*67
1512561669.29,3261,3.0,73388.8,-6.79,-7.91,-7.91,0,*6E
1512561670.56,3262,3.0,73410.8,-6.79,-7.99,-7.91,0,*65
1512561671.8,3263,3.0,73416.0,-6.81,-7.91,-7.99,0,*63
1512561673.07,3264,3.0,73420.5,-6.79,-7.99,-7.91,0,*63
1512561674.33,3265,3.0,73416.8,-6.79,-8.03,-7.99,0,*66
1512561675.57,3266,3.0,73384.0,-6.81,-8.03,-7.99,0,*62
1512561676.84,3267,3.0,73402.8,-6.79,-8.11,-8.03,0,*6B
1512561678.1,3268,3.0,73374.8,-6.79,-8.03,-8.03,0,*67
1512561679.37,3269,3.0,73356.3,-6.79,-8.11,-8.11,0,*66
1512561680.62,3270,3.0,73352.0,-6.81,-8.11,-8.11,0,*69
1512561681.87,3271,3.0,73356.3,-6.81,-8.11,-8.11,0,*68
1512561683.06,3272,3.0,73366.0,-6.81,-8.17,-8.17,0,*6B
1512561684.25,3273,3.0,73366.8,-6.81,-8.25,-8.17,0,*6B
1512561685.44,3274,3.0,73360.8,-6.81,-8.17,-8.25,0,*6C
1512561686.63,3275,3.0,73336.8,-6.81,-8.29,-8.29,0,*6C
1512561687.82,3276,3.0,73332.3,-6.81,-8.33,-8.29,0,*64
1512561689.01,3277,3.0,73330.3,-6.81,-8.41,-8.29,0,*60
1512561690.19,3278,3.0,73332.8,-6.81,-8.33,-8.33,0,*61
1512561691.38,3279,3.0,73352.5,-6.81,-8.33,-8.41,0,*65
1512561692.57,3280,3.0,73346.8,-6.85,-8.37,-8.37,0,*62
1512561693.76,3281,3.0,73372.8,-6.85,-8.37,-8.33,0,*67
1512561694.94,3282,3.0,73366.3,-6.81,-8.33,-8.33,0,*64
1512561696.12,3283,3.0,73370.8,-6.85,-8.33,-8.33,0,*61
1512561697.3,3284,3.0,73368.5,-6.85,-8.33,-8.33,0,*66
1512561698.49,3285,3.0,73370.5,-6.85,-8.25,-8.33,0,*60
1512561699.67,3286,3.0,73372.0,-6.85,-8.33,-8.25,0,*63
1512561700.85,3287,3.0,73386.0,-6.85,-8.33,-8.33,0,*65
1512561702.06,3288,3.0,73372.8,-6.87,-8.25,-8.33,0,*6F
1512561703.28,3289,3.0,73374.3,-6.91,-8.29,-8.25,0,*62
1512561704.5,3290,3.0,73366.5,-6.87,-8.25,-8.25,0,*61
1512561705.71,3291,3.0,73372.0,-6.87,-8.25,-8.33,0,*67
1512561706.93,3292,3.0,73374.3,-6.87,-8.25,-8.25,0,*63
1512561708.15,3293,3.0,73386.3,-6.91,-8.25,-8.25,0,*65
1512561709.4,3294,3.0,73394.8,-6.87,-8.11,-8.17,0,*63
1512561710.62,3295,3.0,73410.8,-6.87,-8.21,-8.21,0,*64
1512561711.84,3296,3.0,73398.8,-6.91,-8.17,-8.17,0,*60
1512561713.08,3297,3.0,73392.0,-6.87,-8.11,-8.21,0,*65
1512561714.33,3298,3.0,73386.5,-6.91,-8.17,-8.11,0,*68
1512561715.58,3299,3.0,73402.3,-6.91,-8.25,-8.11,0,*68
1512561716.8,3300,3.0,73334.8,-6.91,-8.17,-8.17,0,*6E
1512561718.02,3301,3.0,73330.0,-6.91,-8.25,-8.25,0,*6F
1512561719.24,3302,3.0,73340.3,-6.91,-8.25,-8.25,0,*6C
1512561720.46,3303,3.0,73336.5,-6.91,-8.25,-8.17,0,*6C
1512561721.68,3304,3.0,73340.3,-6.91,-8.17,-8.17,0,*6A
1512561722.92,3305,3.0,73346.0,-6.91,-8.25,-8.11,0,*6C
1512561724.14,3306,3.0,73344.8,-6.91,-8.17,-8.17,0,*68
1512561725.42,3307,3.0,73346.5,-6.91,-8.11,-8.11,0,*69
1512561726.69,3308,3.0,73340.0,-6.91,-8.11,-8.03,0,*65
1512561727.94,3309,3.0,73346.5,-6.95,-8.07,-8.07,0,*63
1512561729.19,3310,3.0,73368.5,-6.93,-8.17,-8.07,0,*6C
1512561730.43,3311,3.0,73376.5,-6.93,-8.17,-8.07,0,*6D
1512561731.65,3312,3.06,73378.8,-6.93,-8.17,-8.17,0,*6F
1512561732.86,3313,3.0,73380.5,-6.93,-8.17,-8.17,0,*6E
1512561734.14,3314,3.0,73366.0,-6.93,-8.07,-8.07,0,*69
1512561735.38,3315,3.0,73380.3,-6.93,-8.07,-8.17,0,*69
1512561736.63,3316,3.0,73384.3,-6.95,-8.07,-8.07,0,*6D
1512561737.9,3317,3.0,73372.5,-6.93,-8.07,-8.03,0,*6E
1512561739.14,3318,3.0,73386.3,-6.93,-8.07,-8.17,0,*64
1512561740.4,3319,3.0,73398.0,-6.95,-8.07,-8.07,0,*62
1512561741.67,3320,3.0,73370.5,-6.93,-8.07,-8.07,0,*6E
1512561742.95,3321,3.0,73388.8,-6.93,-8.07,-8.07,0,*6F
1512561744.2,3322,3.0,73394.0,-6.93,-8.17,-8.07,0,*6D
1512561745.44,3323,3.0,73396.5,-6.93,-8.21,-8.07,0,*69
1512561746.63,3324,3.0,73396.0,-6.95,-8.17,-8.17,0,*6C
1512561747.85,3325,3.0,73390.3,-6.93,-8.17,-8.17,0,*6B
1512561749.03,3326,3.0,73386.0,-6.95,-8.21,-8.29,0,*66
1512561750.22,3327,3.0,73384.0,-6.95,-8.21,-8.17,0,*6A
1512561751.41,3328,3.0,73372.5,-6.95,-8.29,-8.21,0,*68
1512561752.6,3329,3.0,73398.0,-6.95,-8.29,-8.21,0,*69
1512561753.79,3330,3.0,73360.5,-6.95,-8.21,-8.29,0,*61
1512561754.97,3331,3.0,73348.3,-6.95,-8.21,-8.17,0,*6D
1512561756.19,3332,3.0,73354.3,-6.93,-8.17,-8.21,0,*68
1512561757.41,3333,3.0,73352.5,-6.93,-8.29,-8.21,0,*64
1512561758.59,3334,3.0,73342.0,-6.99,-8.33,-8.33,0,*61
1512561759.77,3335,3.0,73336.0,-6.99,-8.33,-8.33,0,*60
1512561760.96,3336,3.0,73296.5,-6.95,-8.29,-8.21,0,*67
1512561762.14,3337,3.0,73290.5,-6.95,-8.29,-8.29,0,*6E
1512561763.33,3338,3.0,73322.8,-6.99,-8.37,-8.33,0,*69
1512561764.51,3339,3.0,73342.3,-6.99,-8.33,-8.33,0,*6C
1512561765.69,3340,3.0,73342.3,-6.99,-8.33,-8.33,0,*62
1512561766.87,3341,3.0,73342.0,-6.99,-8.37,-8.33,0,*67
1512561768.06,3342,3.0,73346.5,-6.99,-8.37,-8.33,0,*64
1512561769.24,3343,3.0,73390.0,-6.99,-8.33,-8.33,0,*61
1512561770.42,3344,3.0,73388.3,-6.99,-8.33,-8.25,0,*61
1512561771.61,3345,3.0,73392.3,-6.99,-8.25,-8.21,0,*63
1512561772.82,3346,3.0,73390.3,-7.01,-8.25,-8.25,0,*64
1512561774.04,3347,3.0,73378.3,-7.01,-8.25,-8.21,0,*61
1512561775.26,3348,3.0,73348.3,-6.99,-8.11,-8.21,0,*69
1512561776.53,3349,3.0,73360.0,-7.01,-8.11,-8.07,0,*6C
1512561777.8,3350,3.0,73374.3,-7.01,-8.11,-8.07,0,*64
1512561779.07,3351,3.0,73380.5,-7.01,-8.11,-8.11,0,*62
1512561780.32,3352,3.0,73386.0,-6.99,-8.11,-8.07,0,*66
1512561781.57,3353,3.0,73360.8,-6.99,-8.11,-8.07,0,*67
1512561782.81,3354,3.0,73338.5,-7.01,-8.21,-8.11,0,*64
1512561784.05,3355,3.0,73340.5,-7.01,-8.11,-8.21,0,*65
1512561785.29,3356,3.0,73362.8,-7.01,-8.11,-8.21,0,*66
1512561786.54,3357,3.0,73356.3,-7.01,-8.11,-8.21,0,*67
1512561787.75,3358,3.0,73332.8,-7.01,-8.21,-8.21,0,*6B
1512561788.94,3359,3.0,73332.8,-7.03,-8.25,-8.17,0,*69
1512561790.21,3360,3.0,73332.3,-7.01,-8.11,-8.11,0,*60
1512561791.48,3361,3.0,73338.8,-7.01,-7.99,-8.07,0,*69
1512561792.75,3362,3.0,73350.3,-7.01,-7.99,-8.07,0,*6A
1512561794.01,3363,3.06,73354.0,-7.01,-8.07,-7.99,0,*6B
1512561795.27,3364,3.0,73352.5,-7.01,-7.99,-7.95,0,*68
1512561796.51,3365,3.0,73358.3,-7.03,-8.03,-8.03,0,*67
1512561797.77,3366,3.0,73370.5,-7.01,-7.95,-7.95,0,*66
1512561799.03,3367,3.0,73376.0,-7.01,-7.99,-7.99,0,*67
1512561800.27,3368,3.0,73356.5,-7.01,-7.99,-7.87,0,*67
1512561801.53,3369,3.0,73342.0,-7.01,-7.95,-7.95,0,*69
1512561802.76,3370,3.0,73338.8,-7.03,-8.03,-8.03,0,*63
1512561804.0,3371,3.0,73346.0,-7.03,-8.03,-8.03,0,*62
1512561805.24,3372,3.0,73348.8,-7.03,-7.99,-7.99,0,*61
1512561806.5,3373,3.0,73346.8,-7.01,-7.99,-7.95,0,*6E
1512561807.76,3374,3.0,73352.3,-7.01,-7.99,-7.95,0,*69
1512561809.02,3375,3.06,73356.5,-7.01,-7.95,-7.95,0,*64
1512561810.24,3376,3.0,73336.0,-6.99,-7.95,-7.87,0,*64
1512561811.45,3377,3.0,73324.3,-7.01,-7.87,-7.87,0,*66
1512561812.71,3378,3.0,73346.8,-7.01,-7.95,-7.95,0,*69
1512561813.95,3379,3.0,73338.8,-7.01,-7.87,-7.95,0,*6B
1512561815.19,3380,3.0,73324.0,-7.01,-7.95,-7.87,0,*6D
1512561816.41,3381,3.0,73312.8,-7.01,-7.87,-7.87,0,*6F
1512561817.67,3382,3.0,73334.8,-7.01,-7.95,-7.95,0,*6C
1512561818.91,3383,3.0,73360.0,-7.01,-7.95,-7.87,0,*6E
1512561820.17,3384,3.0,73360.5,-7.01,-7.95,-7.95,0,*6A
1512561821.4,3385,3.0,73362.3,-6.99,-7.95,-7.95,0,*6B
1512561822.64,3386,3.06,73358.3,-7.03,-7.99,-7.99,0,*6A
1512561823.88,3387,3.0,73356.0,-7.03,-7.99,-7.91,0,*63
1512561825.14,3388,3.0,73354.0,-7.01,-7.95,-7.95,0,*66
1512561826.38,3389,3.0,73348.5,-7.01,-7.87,-7.95,0,*64
1512561827.62,3390,3.0,73368.0,-7.03,-7.99,-7.99,0,*6D
1512561828.86,3391,3.0,73376.8,-6.99,-7.99,-7.95,0,*62
1512561830.12,3392,3.0,73360.8,-7.01,-8.07,-7.95,0,*69
1512561831.38,3393,3.0,73372.3,-7.01,-7.99,-7.99,0,*6C
1512561832.66,3394,3.0,73376.0,-7.01,-8.07,-8.07,0,*6B
1512561833.93,3395,3.0,73384.3,-7.01,-7.99,-8.07,0,*62
1512561835.16,3396,3.0,73368.3,-7.03,-8.03,-8.03,0,*6B
1512561836.4,3397,3.0,73368.0,-7.03,-8.11,-7.99,0,*65
1512561837.66,3398,3.0,73366.8,-7.01,-7.99,-7.95,0,*6B
1512561838.93,3399,3.0,73358.0,-7.01,-7.99,-7.99,0,*66
1512561840.18,3400,3.0,73356.8,-6.99,-8.07,-8.07,0,*61
1512561841.44,3401,3.0,73356.8,-7.01,-7.99,-8.07,0,*68
1512561842.69,3402,3.0,73356.3,-7.03,-8.11,-8.03,0,*62
1512561843.93,3403,3.0,73354.3,-7.03,-8.11,-8.11,0,*60
1512561845.15,3404,3.0,73346.8,-7.03,-8.17,-8.11,0,*61
1512561846.36,3405,3.0,73342.8,-7.03,-8.25,-8.11,0,*61
1512561847.58,3406,3.0,73340.0,-7.03,-8.17,-8.11,0,*63
1512561848.82,3407,3.0,73340.5,-7.05,-8.17,-8.11,0,*64
1512561850.04,3408,3.0,73330.8,-7.03,-8.17,-8.11,0,*6D
1512561851.28,3409,3.0,73330.3,-7.05,-8.17,-8.11,0,*6A
1512561852.54,3410,3.0,73318.5,-7.05,-8.03,-8.11,0,*67
1512561853.78,3411,3.0,73322.3,-7.03,-8.11,-8.03,0,*60
1512561855.02,3412,3.0,73318.0,-7.03,-8.11,-8.03,0,*63
1512561856.28,3413,3.0,73322.8,-7.05,-8.03,-8.03,0,*67
1512561857.51,3414,3.0,73344.0,-7.03,-8.03,-7.91,0,*62
1512561858.75,3415,3.0,73354.3,-7.03,-7.99,-7.99,0,*67
1512561859.99,3416,3.0,73350.0,-7.03,-7.91,-7.99,0,*6C
1512561861.23,3417,3.0,73336.5,-7.03,-8.03,-7.91,0,*61
1512561862.49,3418,3.0,73342.3,-7.05,-7.99,-7.99,0,*6C
1512561863.72,3419,3.0,73314.5,-7.03,-8.03,-7.99,0,*67
1512561864.99,3420,3.0,73320.8,-7.05,-7.99,-7.99,0,*67
1512561866.25,3421,3.0,73330.3,-7.05,-7.99,-7.91,0,*6E
1512561867.51,3422,3.0,73336.3,-7.05,-7.91,-7.91,0,*65
1512561868.75,3423,3.0,73356.3,-7.03,-7.99,-7.91,0,*6A
1512561870.01,3424,3.0,73336.8,-7.05,-7.91,-7.91,0,*63
1512561871.27,3425,3.0,73326.5,-7.05,-7.99,-7.99,0,*62
1512561872.53,3426,3.0,73330.3,-7.05,-8.03,-7.99,0,*6D
1512561873.79,3427,3.0,73324.0,-7.05,-8.03,-7.99,0,*6C
1512561875.03,3428,3.0,73302.5,-7.03,-8.03,-7.99,0,*65
1512561876.27,3429,3.0,73304.5,-7.03,-8.11,-8.11,0,*68
1512561877.53,3430,3.0,73332.3,-7.05,-8.03,-8.11,0,*65
1512561878.8,3431,3.0,73310.5,-7.05,-8.11,-8.11,0,*67
1512561880.04,3432,3.0,73316.3,-7.05,-8.11,-8.17,0,*62
1512561881.29,3433,3.0,73328.5,-7.05,-8.03,-8.03,0,*65
1512561882.53,3434,3.0,73312.3,-7.05,-8.17,-8.03,0,*67
1512561883.77,3435,3.0,73292.8,-7.05,-8.11,-8.17,0,*65
1512561885.04,3436,3.0,73308.8,-7.05,-8.11,-8.11,0,*60
1512561886.3,3437,3.0,73320.5,-7.05,-8.11,-8.11,0,*61
1512561887.53,3438,3.0,73344.3,-7.07,-8.17,-8.07,0,*6D
1512561888.8,3439,3.0,73338.3,-7.09,-8.07,-8.07,0,*63
1512561890.02,3440,3.0,73346.5,-7.07,-8.17,-8.07,0,*62
1512561891.28,3441,3.0,73328.0,-7.05,-8.03,-8.03,0,*60
1512561892.52,3442,3.0,73292.0,-7.07,-8.07,-8.03,0,*65
1512561893.73,3443,3.0,73320.0,-7.07,-8.17,-8.03,0,*65
1512561894.97,3444,3.0,73358.8,-7.07,-8.03,-8.03,0,*67
1512561896.2,3445,3.0,73330.8,-7.07,-8.03,-7.95,0,*66
1512561897.46,3446,3.0,73344.8,-7.05,-8.03,-7.99,0,*6B
1512561898.7,3447,3.0,73328.8,-7.07,-8.07,-8.03,0,*60
1512561899.91,3448,3.0,73336.3,-7.07,-8.07,-8.17,0,*6A
1512561901.14,3449,3.0,73350.3,-7.07,-8.17,-8.07,0,*6B
1512561902.36,3450,3.0,73332.8,-7.07,-8.17,-8.07,0,*63
1512561903.61,3451,3.0,73336.0,-7.09,-8.17,-8.07,0,*6C
1512561904.86,3452,3.0,73354.3,-7.07,-8.07,-8.07,0,*60
1512561906.11,3453,3.0,73372.3,-7.07,-8.07,-8.07,0,*61
1512561907.33,3454,3.0,73366.0,-7.07,-8.17,-8.07,0,*67
1512561908.55,3455,3.0,73342.0,-7.07,-8.07,-8.17,0,*66
1512561909.76,3456,3.0,73328.3,-7.07,-8.07,-8.17,0,*65
1512561910.95,3457,3.06,73346.8,-7.07,-8.21,-8.17,0,*60
1512561912.2,3458,3.0,73350.0,-7.07,-8.07,-8.07,0,*6A
1512561913.39,3459,3.0,73362.3,-7.07,-8.17,-8.17,0,*6B
1512561914.63,3460,3.0,73372.0,-7.09,-8.21,-8.07,0,*6B
1512561915.85,3461,3.0,73382.0,-7.09,-8.21,-8.21,0,*6E
1512561917.04,3462,3.0,73396.3,-7.07,-8.21,-8.29,0,*6B
1512561918.24,3463,3.0,73384.0,-7.09,-8.29,-8.29,0,*6C
1512561919.43,3464,3.0,73356.3,-7.07,-8.29,-8.29,0,*65
1512561920.63,3465,3.0,73314.8,-7.09,-8.33,-8.33,0,*6A
1512561921.82,3466,3.0,73276.5,-7.11,-8.37,-8.33,0,*64
1512561923.0,3467,3.0,73286.8,-7.11,-8.33,-8.33,0,*61
1512561924.2,3468,3.0,73300.0,-7.09,-8.29,-8.29,0,*67
1512561925.41,3469,3.0,73284.0,-7.09,-8.33,-8.29,0,*6D
1512561926.61,3470,3.0,73306.3,-7.09,-8.33,-8.33,0,*6E
1512561927.82,3471,3.0,73288.8,-7.09,-8.33,-8.33,0,*6F
1512561929.02,3472,3.0,73316.0,-7.09,-8.33,-8.33,0,*6C
1512561930.21,3473,3.0,73314.3,-7.11,-8.37,-8.45,0,*61
1512561931.4,3474,3.06,73334.3,-7.11,-8.45,-8.45,0,*63
1512561932.61,3475,3.0,73340.3,-7.11,-8.59,-8.51,0,*6A
1512561933.85,3476,3.0,73352.3,-7.11,-8.51,-8.51,0,*61
1512561935.06,3477,3.0,73356.3,-7.11,-8.51,-8.59,0,*68
1512561936.28,3478,3.0,73332.0,-7.11,-8.59,-8.51,0,*67
1512561937.48,3479,3.0,73318.0,-7.13,-8.59,-8.59,0,*6C
1512561938.69,3480,3.0,73300.8,-7.13,-8.59,-8.59,0,*6A
1512561939.9,3481,3.06,73312.8,-7.13,-8.63,-8.63,0,*6B
1512561941.1,3482,3.0,73312.8,-7.13,-8.63,-8.63,0,*68
1512561942.31,3483,3.0,73334.3,-7.13,-8.63,-8.63,0,*69
1512561943.52,3484,3.06,73340.3,-7.13,-8.63,-8.63,0,*6E
1512561944.76,3485,3.0,73348.8,-7.13,-8.51,-8.59,0,*67
1512561945.94,3486,3.0,73356.0,-7.15,-8.55,-8.55,0,*6A
1512561947.15,3487,3.0,73358.5,-7.17,-8.63,-8.55,0,*6C
1512561948.34,3488,3.0,73368.0,-7.15,-8.55,-8.55,0,*64
1512561949.58,3489,3.0,73370.8,-7.17,-8.55,-8.51,0,*63
1512561950.83,3490,3.0,73366.3,-7.17,-8.41,-8.51,0,*6E
1512561952.02,3491,3.0,73368.0,-7.15,-8.41,-8.41,0,*6C
1512561953.23,3492,3.0,73380.8,-7.17,-8.41,-8.41,0,*6D
1512561954.43,3493,3.0,73366.0,-7.15,-8.41,-8.37,0,*6F
1512561955.65,3494,3.0,73358.5,-7.17,-8.41,-8.37,0,*6A
1512561956.87,3495,3.0,73344.0,-7.17,-8.37,-8.29,0,*65
1512561958.09,3496,3.0,73328.0,-7.17,-8.37,-8.37,0,*69
1512561959.31,3497,3.0,73314.3,-7.17,-8.37,-8.29,0,*67
1512561960.53,3498,3.0,73316.0,-7.17,-8.29,-8.37,0,*68
1512561961.72,3499,3.06,73316.8,-7.15,-8.29,-8.29,0,*64
1512561962.93,3500,3.0,73322.5,-7.17,-8.29,-8.29,0,*67
1512561964.14,3501,3.0,73338.3,-7.17,-8.29,-8.29,0,*66
1512561965.36,3502,3.0,73344.3,-7.17,-8.29,-8.29,0,*65
1512561966.57,3503,3.0,73316.8,-7.17,-8.25,-8.17,0,*65
1512561967.79,3504,3.0,73298.8,-7.17,-8.29,-8.25,0,*6F
1512561969.01,3505,3.0,73300.0,-7.17,-8.37,-8.37,0,*62
1512561970.23,3506,3.0,73310.8,-7.17,-8.37,-8.29,0,*6E
1512561971.44,3507,3.0,73314.3,-7.17,-8.29,-8.29,0,*60
1512561972.66,3508,3.0,73312.8,-7.17,-8.37,-8.29,0,*60
1512561973.88,3509,3.0,73314.0,-7.17,-8.37,-8.29,0,*61
1512561975.08,3510,3.0,73298.0,-7.21,-8.33,-8.33,0,*63
1512561976.29,3511,3.0,73288.5,-7.21,-8.41,-8.33,0,*67
1512561977.5,3512,3.0,73296.3,-7.21,-8.41,-8.41,0,*61
1512561978.72,3513,3.0,73292.3,-7.21,-8.41,-8.41,0,*60
1512561979.93,3514,3.06,73300.3,-7.21,-8.41,-8.33,0,*62
1512561981.14,3515,3.0,73312.8,-7.17,-8.29,-8.25,0,*6F
1512561982.35,3516,3.0,73320.8,-7.21,-8.29,-8.29,0,*65
1512561983.56,3517,3.0,73306.8,-7.21,-8.29,-8.21,0,*6C
1512561984.77,3518,3.0,73326.8,-7.21,-8.29,-8.29,0,*6B
1512561985.98,3519,3.0,73286.3,-7.21,-8.29,-8.29,0,*6A
1512561987.19,3520,3.0,73274.5,-7.21,-8.29,-8.29,0,*60
1512561988.4,3521,3.0,73262.3,-7.21,-8.29,-8.29,0,*61
1512561989.61,3522,3.06,73286.0,-7.21,-8.29,-8.41,0,*6C
1512561990.83,3523,3.0,73280.8,-7.17,-8.17,-8.29,0,*6B
1512561992.01,3524,3.0,73296.8,-7.23,-8.29,-8.33,0,*6D
1512561993.22,3525,3.0,73314.0,-7.21,-8.21,-8.29,0,*6D
1512561994.44,3526,3.0,73314.0,-7.21,-8.29,-8.21,0,*6E
1512561995.65,3527,3.06,73304.3,-7.21,-8.29,-8.21,0,*6F
1512561996.84,3528,3.06,73314.3,-7.23,-8.29,-8.21,0,*62
1512561998.05,3529,3.0,73324.0,-7.21,-8.29,-8.29,0,*69
1512561999.26,3530,3.0,73326.8,-7.21,-8.21,-8.21,0,*61
1512562000.45,3531,3.0,73336.3,-7.23,-8.29,-8.21,0,*6A
1512562001.64,3532,3.0,73348.3,-7.23,-8.29,-8.21,0,*69
1512562002.86,3533,3.0,73354.5,-7.21,-8.29,-8.21,0,*6A
1512562004.06,3534,3.0,73346.5,-7.21,-8.33,-8.21,0,*66
1512562005.28,3535,3.0,73354.3,-7.21,-8.29,-8.21,0,*6C
1512562006.49,3536,3.0,73358.8,-7.21,-8.29,-8.21,0,*6F
1512562007.68,3537,3.0,73352.0,-7.23,-8.21,-8.21,0,*64
1512562008.9,3538,3.06,73370.0,-7.23,-8.07,-8.21,0,*6F
1512562010.15,3539,3.0,73348.0,-7.23,-8.07,-8.07,0,*6A
1512562011.43,3540,3.0,73344.0,-7.21,-8.07,-8.07,0,*66
1512562012.65,3541,3.0,73368.8,-7.23,-8.17,-8.07,0,*64
1512562013.92,3542,3.0,73368.3,-7.21,-8.07,-8.07,0,*64
1512562015.2,3543,3.0,73340.5,-7.21,-8.07,-8.07,0,*65
1512562016.47,3544,3.06,73314.3,-7.21,-8.07,-8.07,0,*62
1512562017.72,3545,3.0,73312.3,-7.23,-8.07,-8.07,0,*61
1512562019.0,3546,3.0,73328.5,-7.21,-8.07,-8.07,0,*60
1512562020.25,3547,3.0,73348.0,-7.23,-8.07,-8.07,0,*63
1512562021.5,3548,3.0,73352.0,-7.23,-8.07,-8.07,0,*6C
1512562022.77,3549,3.0,73362.8,-7.21,-8.07,-8.07,0,*6F
1512562024.05,3550,3.0,73374.8,-7.21,-8.07,-8.07,0,*67
1512562025.31,3551,3.0,73374.5,-7.21,-8.07,-8.03,0,*62
1512562026.57,3552,3.0,73384.0,-7.21,-8.07,-8.03,0,*61
1512562027.84,3553,3.0,73382.0,-7.21,-8.07,-8.03,0,*60
1512562029.08,3554,3.06,73386.3,-7.23,-8.07,-8.03,0,*65
1512562030.35,3555,3.0,73386.8,-7.21,-8.07,-8.07,0,*62
1512562031.6,3556,3.0,73380.0,-7.21,-8.07,-8.17,0,*60
1512562032.82,3557,3.0,73380.0,-7.23,-8.17,-8.07,0,*63
1512562034.07,3558,3.0,73364.8,-7.23,-8.07,-8.07,0,*6D
1512562035.32,3559,3.0,73378.5,-7.21,-8.17,-8.07,0,*6F
1512562036.57,3560,3.0,73368.5,-7.23,-8.07,-8.07,0,*66
1512562037.78,3561,3.0,73364.8,-7.23,-8.07,-8.17,0,*66
1512562039.06,3562,3.0,73366.3,-7.21,-8.07,-8.07,0,*66
1512562040.28,3563,3.0,73370.0,-7.23,-8.17,-8.07,0,*64
1512562041.53,3564,3.0,73396.3,-7.23,-8.07,-8.07,0,*62
1512562042.75,3565,3.0,73388.5,-7.23,-8.07,-8.17,0,*62
1512562044.02,3566,3.0,73400.5,-7.21,-8.07,-8.07,0,*62
1512562045.27,3567,3.0,73388.3,-7.23,-8.07,-8.07,0,*61
1512562046.5,3568,3.0,73362.3,-7.23,-8.17,-8.07,0,*6F
1512562047.72,3569,3.06,73340.0,-7.23,-8.07,-8.17,0,*6E
1512562048.9,3570,3.0,73348.0,-7.23,-8.17,-8.17,0,*67
1512562050.12,3571,3.0,73338.8,-7.21,-8.17,-8.17,0,*64
1512562051.36,3572,3.0,73340.5,-7.21,-8.07,-8.17,0,*66
1512562052.61,3573,3.06,73350.5,-7.21,-8.17,-8.07,0,*67
1512562053.82,3574,3.0,73348.5,-7.21,-8.17,-8.17,0,*61
1512562055.01,3575,3.0,73346.5,-7.23,-8.17,-8.17,0,*62
1512562056.23,3576,3.0,73356.0,-7.23,-8.17,-8.07,0,*60
1512562057.48,3577,3.0,73364.5,-7.21,-8.17,-8.07,0,*63
1512562058.72,3578,3.0,73374.5,-7.21,-8.07,-8.17,0,*6C
1512562059.97,3579,3.06,73400.3,-7.21,-8.17,-8.07,0,*6D
1512562061.16,3580,3.0,73386.8,-7.23,-8.17,-8.17,0,*68
1512562062.37,3581,3.06,73384.3,-7.21,-8.17,-8.17,0,*6B
1512562063.58,3582,3.0,73386.5,-7.21,-8.17,-8.17,0,*68
1512562064.82,3583,3.06,73378.8,-7.21,-8.07,-8.17,0,*68
1512562066.01,3584,3.06,73358.3,-7.23,-8.17,-8.17,0,*6C
1512562067.23,3585,3.06,73354.0,-7.21,-8.17,-8.17,0,*6F
1512562068.47,3586,3.0,73364.5,-7.21,-8.17,-8.07,0,*6D
1512562069.66,3587,3.0,73360.5,-7.23,-8.17,-8.17,0,*6F
1512562070.85,3588,3.06,73356.0,-7.23,-8.21,-8.21,0,*60
1512562072.07,3589,3.06,73340.5,-7.21,-8.29,-8.21,0,*6B
1512562073.25,3590,3.0,73330.5,-7.23,-8.29,-8.29,0,*69
1512562074.44,3591,3.0,73364.5,-7.23,-8.29,-8.29,0,*68
1512562075.62,3592,3.0,73332.0,-7.25,-8.33,-8.33,0,*6D
1512562076.81,3593,3.0,73240.8,-7.23,-8.29,-8.29,0,*6A
1512562077.99,3594,3.06,73198.0,-7.23,-8.33,-8.33,0,*6D
1512562079.17,3595,3.06,73224.5,-7.23,-8.33,-8.33,0,*6C
1512562080.36,3596,3.0,73242.8,-7.23,-8.33,-8.21,0,*6C
1512562081.54,3597,3.0,73222.5,-7.23,-8.33,-8.29,0,*65
1512562082.72,3598,3.0,73192.3,-7.23,-8.33,-8.29,0,*6A
1512562083.91,3599,3.06,73162.0,-7.25,-8.37,-8.33,0,*62
1512562085.11,3600,3.0,73166.3,-7.25,-8.45,-8.37,0,*60
1512562086.31,3601,3.06,73182.8,-7.25,-8.45,-8.37,0,*61
1512562087.5,3602,3.0,73184.3,-7.25,-8.45,-8.37,0,*62
1512562088.7,3603,3.0,73234.0,-7.25,-8.37,-8.37,0,*66
1512562089.89,3604,3.0,73248.8,-7.25,-8.37,-8.33,0,*65
1512562091.09,3605,3.0,73278.0,-7.25,-8.37,-8.37,0,*60
1512562092.3,3606,3.06,73296.5,-7.27,-8.37,-8.33,0,*65
1512562093.49,3607,3.0,73312.5,-7.25,-8.37,-8.33,0,*66
1512562094.68,3608,3.0,73336.8,-7.25,-8.45,-8.33,0,*6C
1512562095.87,3609,3.0,73354.5,-7.25,-8.37,-8.33,0,*68
1512562097.08,3610,3.0,73344.0,-7.27,-8.37,-8.33,0,*62
1512562098.26,3611,3.0,73364.8,-7.25,-8.33,-8.33,0,*65
1512562099.47,3612,3.0,73354.3,-7.27,-8.33,-8.33,0,*64
1512562100.65,3613,3.06,73338.0,-7.25,-8.33,-8.33,0,*67
1512562101.86,3614,3.0,73336.0,-7.27,-8.33,-8.45,0,*63
1512562103.06,3615,3.0,73338.0,-7.25,-8.37,-8.37,0,*61
1512562104.3,3616,3.0,73320.3,-7.29,-8.51,-8.51,0,*6E
1512562105.54,3617,3.0,73302.3,-7.27,-8.51,-8.45,0,*64
1512562106.79,3618,3.0,73296.0,-7.27,-8.37,-8.51,0,*6E
1512562108.03,3619,3.0,73320.3,-7.27,-8.59,-8.51,0,*67
1512562109.21,3620,3.0,73318.5,-7.29,-8.55,-8.55,0,*6B
1512562110.39,3621,3.0,73322.3,-7.29,-8.63,-8.55,0,*6F
1512562111.57,3622,3.0,73342.8,-7.29,-8.55,-8.55,0,*69
1512562112.75,3623,3.0,73314.3,-7.29,-8.63,-8.55,0,*6D
1512562113.93,3624,3.0,73244.8,-7.29,-8.67,-8.59,0,*62
1512562115.14,3625,3.0,73202.8,-7.29,-8.63,-8.51,0,*6F
1512562116.33,3626,3.06,73194.8,-7.29,-8.55,-8.55,0,*6D
1512562117.51,3627,3.0,73244.8,-7.29,-8.63,-8.63,0,*6C
1512562118.69,3628,3.06,73300.5,-7.29,-8.63,-8.67,0,*67
1512562119.9,3629,3.06,73322.3,-7.31,-8.59,-8.67,0,*66
1512562121.11,3630,3.0,73276.0,-7.31,-8.59,-8.59,0,*63
1512562122.32,3631,3.0,73298.8,-7.31,-8.59,-8.59,0,*62
1512562123.5,3632,3.0,73322.5,-7.29,-8.55,-8.55,0,*68
1512562124.71,3633,3.0,73342.3,-7.31,-8.55,-8.55,0,*60
1512562125.93,3634,3.0,73344.8,-7.31,-8.55,-8.45,0,*66
1512562127.14,3635,3.0,73340.5,-7.31,-8.45,-8.55,0,*67
1512562128.35,3636,3.0,73358.3,-7.31,-8.55,-8.55,0,*65
1512562129.57,3637,3.0,73348.3,-7.31,-8.55,-8.45,0,*65
1512562130.79,3638,3.0,73356.8,-7.31,-8.55,-8.45,0,*6A
1512562131.99,3639,3.0,73358.3,-7.33,-8.55,-8.45,0,*69
1512562133.18,3640,3.0,73348.8,-7.33,-8.55,-8.45,0,*67
1512562134.38,3641,3.0,73346.5,-7.33,-8.45,-8.45,0,*67